Vertical_Velocity
-0 -0 -0 -0 -1 -1 -0 -0 1 1 1 1 1 0 0 -0 -1 -2 -2 -2 -2 -3 -2 -2 -1 -1 0 1 1 1 1 1 1 1 1 1 0 1 1 1 1 2 2 3 2 1 1 -0 -0 -0 -1 -1 -1 -2 -2 -2 3 6 8 5 0 -3 -4 -4 -4 -4 -3 -3 -2
-0 -0 -0 -0 -0 -0 -1 -1 -0 0 1 1 1 1 1 1 0 -1 -1 -2 -2 -3 -3 -3 -2 -2 -1 -1 1 1 1 1 1 1 1 1 1 1 1 0 0 1 2 2 2 2 2 1 1 0 0 -0 -0 -1 -1 -1 -1 2 8 14 12 9 4 0 -2 -3 -3 -4 -3
-1 -0 -0 -0 -0 -0 -0 -1 -1 -0 0 0 1 1 1 1 1 1 0 -1 -1 -2 -2 -3 -3 -3 -3 -2 -1 -0 1 1 1 1 1 1 1 1 1 1 1 1 1 1 2 3 3 3 2 2 1 1 -0 -0 0 1 1 0 2 9 16 17 15 12 10 7 3 -1 -2
-1 -1 -1 -1 -0 -0 -0 -0 -0 -1 -0 -0 0 1 1 1 1 1 1 1 0 -0 -1 -2 -3 -3 -3 -3 -3 -2 -1 -0 1 1 1 1 1 1 1 2 1 1 1 1 2 2 3 3 3 3 3 2 1 1 1 2 3 2 1 1 6 11 14 16 17 17 14 10 6
-1 -1 -1 -1 -1 -1 -1 -0 -0 -1 -1 -0 0 0 0 0 1 1 1 1 1 1 0 0 -1 -2 -3 -3 -3 -3 -3 -2 -1 -0 1 1 1 1 2 2 1 1 1 1 1 2 2 3 3 4 4 3 3 2 2 3 2 3 2 2 1 2 6 10 13 16 18 18 15
-1 -1 -1 -1 -1 -1 -1 -1 -1 -1 -1 -0 -0 -0 -1 -0 0 1 1 1 1 1 1 1 1 0 -1 -1 -2 -3 -4 -4 -3 -2 -1 -0 0 1 1 1 2 2 1 1 1 2 2 3 3 3 4 4 3 3 3 2 1 2 2 2 -0 0 2 5 7 10 13 16 17
-1 -1 -1 -1 -1 -1 -1 -1 -1 -1 -1 -1 -1 -1 -1 -0 0 0 0 0 1 1 1 1 1 1 1 1 -0 -1 -2 -3 -3 -3 -3 -2 -1 -0 1 1 1 1 1 1 2 2 2 3 3 3 3 4 3 3 2 2 1 1 1 -0 -1 1 2 2 4 7 8 9 11
-1 -1 -1 -1 -1 -1 -1 -1 -1 -1 -1 -1 -1 -1 -1 -1 -0 -0 -0 0 0 0 0 1 1 1 1 1 1 1 0 -1 -1 -2 -3 -3 -2 -2 -1 0 1 1 1 1 2 1 1 2 3 3 3 3 3 3 2 2 1 1 0 -1 -1 -1 -0 -0 3 5 6 7 8
-1 -2 -1 -1 -1 -1 -1 -1 -1 -1 -1 -1 -1 -1 -1 -1 -1 -1 -1 -1 -1 -0 -0 -0 -0 0 0 1 1 1 1 1 0 -0 -1 -2 -2 -2 -2 -1 -1 -0 0 1 1 1 1 1 2 2 3 3 3 3 3 3 2 1 0 -0 -1 -2 -3 -2 0 2 4 6 7
-1 -1 -1 -1 -1 -1 -1 -1 -1 -1 -1 -1 -1 -1 -1 -1 -1 -1 -1 -1 -1 -0 -0 -1 -1 -1 -0 -0 -0 -0 -0 0 0 0 -0 -0 -1 -1 -1 -1 -1 -1 -0 -0 1 1 1 1 1 1 2 2 3 3 3 3 3 2 1 0 -0 -2 -3 -4 -3 -2 -0 3 5
-1 -1 -1 -1 -1 -1 -1 -0 -1 -1 -1 -1 -1 -1 -1 -1 -1 -1 -1 -1 0 -0 -1 -1 -0 -1 -1 -1 -1 -1 -1 -1 -1 -1 -1 -1 -1 -1 -1 -1 -1 -1 -0 -0 0 1 1 0 1 1 1 1 2 2 2 2 3 3 2 1 0 -1 -2 -3 -4 -4 -4 -2 0
-1 -1 -1 -1 -1 -1 -0 -0 -1 -1 -1 -1 -1 -1 -1 -1 -1 -1 -0 0 0 -0 -0 0 1 0 -0 -1 -0 -0 -0 -0 -0 -1 -1 -2 -2 -2 -2 -2 -2 -1 -1 -1 0 1 1 0 0 0 0 -0 1 1 1 1 2 2 2 2 1 0 -1 -2 -3 -4 -5 -5 -4
0 -0 -0 -0 -0 -0 -0 -0 -0 -0 -0 -0 -0 -0 -0 -0 -0 -0 0 -0 -0 -0 0 0 1 1 1 0 0 1 1 1 1 1 0 -1 -1 -2 -2 -3 -3 -3 -2 -2 -1 0 1 1 1 1 0 -0 0 1 1 1 1 1 1 1 1 1 0 -0 -1 -2 -3 -4 -6
1 0 0 0 0 0 -0 -0 -1 -0 -0 -0 -0 -0 0 0 0 1 1 0 -0 -0 0 0 1 1 2 1 1 1 1 1 1 1 1 1 1 0 -0 -1 -2 -3 -4 -4 -3 -2 -1 0 0 1 1 0 0 1 1 1 1 0 0 1 1 1 1 1 0 -1 -1 -3 -4
1 1 1 1 1 0 0 -0 -1 -1 -1 -1 -1 -1 -0 0 0 1 1 0 -1 -1 -1 -0 -0 0 1 2 2 1 1 1 1 1 1 1 1 2 2 1 0 -1 -2 -3 -4 -3 -2 -1 -1 -0 0 1 1 1 1 2 1 1 1 0 0 0 1 1 0 -0 -1 -1 -2
1 1 1 1 1 1 1 0 -0 -0 -1 -1 -2 -1 -1 -1 -1 -0 0 0 -1 -1 -1 -1 -2 -2 -1 -0 0 1 1 1 1 1 1 1 1 1 1 1 1 1 0 -0 -2 -3 -3 -3 -2 -2 -1 -0 0 1 1 2 2 2 1 1 1 1 0 0 0 -0 -0 -0 0
0 1 1 1 1 1 1 1 1 1 0 -1 -1 -1 -2 -2 -2 -1 -1 -0 -0 -1 -1 -2 -2 -2 -2 -3 -2 -1 -1 -1 -1 -0 0 0 0 0 0 0 1 1 1 1 0 -1 -2 -2 -2 -2 -2 -2 -1 -0 0 1 2 2 2 2 2 1 1 -0 -0 -0 -0 0 0
0 0 1 1 1 1 1 2 2 2 2 1 0 -0 -0 -1 -1 -2 -1 -1 0 0 -0 -1 -2 -1 -1 -2 -3 -2 -1 -1 -2 -2 -1 -1 -1 -0 -0 -0 -0 0 1 1 1 1 -0 -1 -2 -2 -2 -2 -2 -2 -1 0 1 2 2 3 3 2 2 1 -0 -0 -1 -0 -1
0 0 0 1 0 1 1 1 1 1 1 1 1 1 1 1 0 -0 -1 -1 0 1 1 0 -0 0 0 -0 -1 -1 -1 0 -1 -1 -1 -1 -1 -0 -0 -0 -0 -0 -0 0 1 1 1 0 -0 -1 -1 -2 -2 -2 -2 -1 -1 0 1 2 3 3 3 2 1 0 -0 -1 -1
0 0 0 -0 0 0 0 1 1 1 1 1 1 1 1 0 1 1 0 -1 -1 -0 1 0 0 0 0 1 1 -0 -0 1 1 1 -0 0 1 0 0 1 0 -0 -0 1 0 1 1 1 1 1 0 -0 -1 -2 -3 -2 -2 -1 -1 0 2 3 3 3 2 1 0 -0 -1
0 0 -0 -0 0 0 0 0 1 1 1 1 0 0 -0 -1 -0 -0 -1 -2 -2 -1 -1 -1 -1 -1 -1 -1 0 -1 -1 -0 1 1 1 1 1 1 1 2 1 1 0 1 1 1 1 1 1 1 1 1 0 -1 -1 -2 -2 -2 -2 -1 -0 1 2 3 3 2 2 1 0
-1 -0 -0 -0 -0 -0 0 0 0 1 1 1 0 0 0 -0 -1 -1 -1 -1 -1 -1 -2 -2 -2 -2 -2 -2 -1 -1 -2 -1 -1 -1 -1 0 1 1 1 2 2 2 1 1 1 1 1 1 1 1 2 2 1 1 1 -0 -1 -2 -2 -2 -2 -1 -0 1 2 2 2 2 1
-1 -1 -1 -1 -1 -1 -0 -0 -0 -0 0 0 0 0 0 0 -0 -1 -1 -1 -0 -1 -1 -2 -2 -3 -3 -3 -2 -2 -2 -2 -2 -2 -2 -2 -1 -1 -0 1 2 2 1 1 1 1 1 1 1 1 2 2 2 1 1 1 1 0 -0 -1 -2 -2 -2 -1 -0 0 1 2 2
-1 -1 -1 -1 -1 -1 -1 -1 -1 -1 -1 -1 -1 -1 -0 -0 -0 -0 -0 -0 0 0 -0 -1 -1 -1 -2 -3 -3 -2 -2 -2 -2 -2 -3 -3 -3 -3 -2 -1 0 1 0 0 0 -0 -0 1 1 1 1 2 2 2 2 1 1 1 0 0 -0 -1 -1 -2 -2 -2 -1 -1 0
-1 -1 -2 -2 -2 -2 -2 -2 -2 -2 -2 -2 -2 -1 -1 -1 -1 -1 -1 -1 -1 -0 0 0 -0 -0 -0 -1 -2 -2 -1 -1 -1 -1 -2 -3 -3 -3 -3 -3 -2 -2 -1 -1 -1 -1 -1 -0 0 0 1 1 2 2 2 2 1 1 1 1 1 0 0 -1 -2 -2 -3 -3 -2
-1 -1 -2 -3 -3 -3 -3 -3 -2 -2 -2 -2 -2 -2 -2 -3 -2 -2 -1 -1 -2 -2 -1 -1 -1 -0 -0 0 -0 -1 -1 -1 -1 -0 -0 -1 -1 -2 -3 -3 -4 -3 -3 -3 -3 -3 -2 -2 -2 -2 -1 1 2 2 2 1 2 2 2 0 0 1 1 -0 -1 -1 -2 -3 -3
-1 -2 -3 -4 -4 -4 -4 -4 -3 -3 -3 -3 -3 -3 -4 -4 -3 -3 -3 -3 -3 -3 -3 -2 -2 -2 -1 -1 -0 -0 -1 -1 -1 -0 -0 0 1 -0 -1 -2 -2 -3 -4 -4 -4 -4 -3 -3 -3 -3 -3 -2 -0 1 2 2 2 2 2 1 1 1 1 0 -0 -0 -1 -2 -3
-2 -2 -3 -4 -4 -4 -5 -4 -3 -3 -3 -3 -3 -4 -4 -4 -4 -4 -4 -4 -4 -3 -3 -3 -3 -3 -2 -2 -2 -1 -1 -2 -2 -1 -1 -0 0 0 0 -0 -1 -2 -3 -4 -5 -5 -5 -4 -4 -4 -5 -4 -3 -1 1 3 2 2 1 1 1 2 2 1 1 0 -0 -2 -2
-2 -2 -2 -2 -3 -4 -4 -3 -3 -3 -4 -3 -4 -4 -4 -4 -4 -4 -5 -4 -4 -4 -4 -4 -4 -3 -3 -3 -3 -2 -2 -3 -3 -2 -2 -2 -1 -1 0 0 -0 -1 -2 -2 -4 -5 -5 -5 -5 -5 -6 -6 -6 -4 -1 2 2 2 2 1 1 2 2 1 2 1 0 -1 -1
-2 -2 -2 -2 -2 -3 -3 -3 -3 -3 -4 -4 -3 -4 -4 -4 -5 -5 -5 -5 -5 -5 -5 -5 -4 -4 -4 -4 -4 -3 -3 -4 -3 -3 -3 -3 -2 -2 -1 -1 -0 -1 -2 -2 -3 -4 -4 -4 -5 -6 -7 -8 -8 -6 -4 -1 1 2 2 1 2 2 1 1 2 2 2 1 0
-2 -2 -1 -1 -1 -2 -3 -3 -3 -3 -4 -4 -4 -4 -4 -5 -5 -6 -6 -6 -6 -6 -6 -5 -4 -5 -6 -5 -4 -5 -5 -5 -4 -4 -5 -4 -3 -3 -3 -1 -1 -2 -2 -2 -3 -4 -4 -4 -4 -5 -6 -8 -9 -8 -7 -4 -1 1 2 2 2 2 1 1 2 2 2 2 2
-3 -2 -2 -1 -2 -2 -3 -3 -4 -4 -4 -4 -4 -4 -5 -5 -6 -6 -7 -7 -7 -7 -6 -6 -6 -6 -6 -6 -6 -5 -5 -5 -5 -6 -6 -5 -5 -5 -4 -2 -2 -2 -3 -3 -4 -4 -4 -4 -4 -5 -6 -7 -8 -9 -8 -6 -4 -2 -0 2 2 2 2 1 1 1 2 2 2
-3 -3 -2 -2 -2 -3 -3 -3 -4 -4 -4 -4 -5 -5 -5 -6 -6 -6 -7 -7 -7 -7 -7 -7 -7 -7 -7 -7 -6 -6 -6 -6 -5 -6 -7 -7 -6 -6 -5 -4 -3 -3 -3 -4 -5 -5 -5 -4 -4 -5 -5 -6 -7 -8 -8 -7 -6 -5 -3 -1 1 2 2 2 1 1 1 2 1
-4 -3 -3 -3 -3 -3 -4 -4 -4 -4 -4 -4 -5 -5 -5 -6 -6 -7 -7 -7 -7 -7 -7 -7 -7 -7 -8 -8 -7 -7 -8 -7 -6 -5 -6 -7 -7 -7 -6 -6 -5 -4 -4 -5 -6 -6 -6 -5 -5 -5 -6 -6 -7 -7 -6 -6 -7 -6 -5 -3 -1 1 2 2 1 1 1 2 1
-4 -4 -4 -4 -3 -4 -4 -4 -4 -4 -4 -4 -5 -5 -5 -6 -6 -7 -7 -7 -7 -7 -7 -7 -6 -7 -8 -9 -9 -8 -8 -8 -7 -7 -6 -6 -7 -8 -8 -7 -6 -5 -4 -5 -7 -7 -7 -6 -6 -6 -6 -7 -7 -7 -6 -6 -6 -6 -5 -4 -3 -1 0 1 1 1 1 1 1
-4 -4 -4 -4 -4 -4 -4 -4 -4 -4 -4 -4 -4 -4 -5 -5 -6 -6 -6 -6 -7 -7 -6 -5 -5 -7 -8 -8 -9 -9 -9 -8 -8 -8 -8 -8 -7 -8 -9 -8 -6 -5 -5 -6 -7 -8 -8 -8 -7 -7 -7 -8 -8 -7 -7 -6 -5 -5 -5 -4 -4 -3 -2 -1 0 0 0 1 1
-5 -5 -5 -4 -4 -4 -4 -4 -4 -4 -4 -4 -3 -4 -5 -5 -5 -6 -6 -6 -7 -8 -8 -5 -4 -6 -7 -7 -8 -10 -11 -9 -8 -9 -10 -10 -8 -8 -8 -9 -6 -5 -4 -4 -6 -8 -9 -9 -8 -8 -9 -9 -9 -9 -8 -6 -6 -5 -4 -3 -3 -3 -3 -2 -2 -2 -1 -0 -0
-6 -6 -5 -5 -5 -5 -4 -4 -4 -4 -4 -4 -4 -4 -4 -4 -5 -6 -6 -6 -7 -9 -9 -7 -6 -7 -7 -6 -7 -9 -10 -8 -8 -9 -10 -11 -10 -9 -8 -8 -7 -5 -3 -2 -5 -7 -8 -8 -9 -9 -10 -10 -10 -10 -8 -7 -7 -6 -5 -3 -2 -2 -2 -3 -4 -4 -3 -2 -1
-6 -6 -6 -6 -5 -5 -4 -3 -3 -3 -4 -4 -4 -5 -4 -4 -5 -6 -7 -6 -8 -9 -10 -9 -9 -9 -8 -7 -8 -9 -9 -8 -7 -8 -9 -10 -10 -9 -8 -7 -7 -5 -2 -1 -4 -6 -7 -7 -8 -9 -10 -10 -11 -10 -9 -8 -7 -7 -5 -3 -2 -2 -2 -3 -4 -5 -5 -4 -2
-6 -6 -6 -6 -5 -4 -4 -3 -3 -3 -4 -4 -5 -5 -5 -5 -6 -7 -7 -7 -9 -11 -11 -11 -12 -12 -11 -10 -10 -10 -9 -8 -7 -7 -7 -8 -10 -9 -9 -8 -7 -4 -2 -1 -3 -4 -6 -6 -8 -8 -9 -10 -10 -11 -10 -8 -7 -6 -5 -3 -2 -2 -3 -4 -4 -4 -5 -6 -4
-5 -5 -5 -5 -4 -3 -3 -3 -3 -3 -3 -4 -5 -6 -6 -6 -7 -8 -8 -7 -10 -12 -13 -12 -14 -14 -14 -12 -12 -11 -9 -8 -7 -6 -5 -6 -9 -9 -8 -8 -7 -6 -4 -2 -2 -3 -5 -5 -6 -7 -8 -8 -10 -10 -10 -8 -7 -6 -5 -4 -3 -3 -3 -4 -4 -4 -4 -5 -4
Height
5642 5642 5642 5641 5641 5641 5641 5641 5641 5641 5640 5640 5640 5640 5640 5640 5640 5640 5640 5640 5640 5640 5640 5640 5640 5640 5640 5640 5640 5641 5641 5641 5642 5642 5642 5642 5642 5643 5643 5643 5643 5643 5644 5644 5645 5646 5647 5648 5649 5649 5650 5652 5653 5654 5655 5657 5659 5661 5661 5660 5660 5660 5661 5662 5663 5664 5665 5666 5667
5639 5639 5639 5639 5638 5638 5638 5638 5638 5638 5638 5638 5638 5638 5638 5638 5638 5638 5638 5638 5638 5638 5638 5638 5638 5638 5638 5638 5638 5638 5638 5639 5639 5639 5640 5640 5640 5640 5641 5641 5641 5641 5641 5642 5642 5643 5643 5644 5645 5646 5647 5648 5649 5650 5651 5652 5653 5655 5658 5659 5659 5658 5658 5659 5659 5659 5660 5661 5662
5636 5636 5636 5636 5636 5636 5636 5636 5636 5636 5636 5636 5635 5635 5635 5635 5635 5635 5635 5635 5635 5635 5635 5635 5636 5636 5636 5636 5636 5636 5636 5636 5636 5637 5637 5638 5638 5638 5638 5638 5639 5639 5639 5639 5639 5639 5640 5641 5642 5643 5643 5645 5646 5647 5647 5648 5648 5650 5652 5654 5655 5656 5657 5657 5657 5657 5657 5658 5658
5634 5633 5633 5633 5633 5633 5633 5633 5633 5633 5633 5633 5633 5633 5633 5633 5633 5633 5633 5633 5633 5633 5633 5633 5633 5633 5633 5633 5633 5633 5633 5633 5633 5633 5634 5634 5635 5635 5636 5636 5636 5637 5637 5637 5637 5637 5637 5638 5638 5639 5640 5641 5642 5643 5643 5644 5645 5646 5647 5648 5649 5651 5652 5653 5654 5655 5656 5656 5655
5631 5631 5630 5630 5630 5630 5630 5630 5630 5630 5630 5630 5630 5630 5630 5630 5630 5630 5630 5630 5630 5630 5630 5630 5630 5630 5630 5631 5631 5631 5631 5631 5631 5631 5631 5631 5632 5632 5633 5633 5633 5634 5634 5634 5634 5634 5635 5635 5635 5636 5637 5638 5638 5639 5640 5641 5642 5642 5643 5643 5645 5646 5647 5648 5649 5650 5652 5653 5653
5628 5628 5628 5628 5627 5627 5627 5627 5626 5626 5626 5627 5627 5627 5627 5627 5627 5627 5627 5627 5628 5628 5628 5628 5628 5628 5628 5628 5628 5628 5628 5628 5628 5628 5628 5628 5628 5629 5629 5629 5630 5630 5631 5631 5632 5632 5632 5632 5633 5633 5633 5634 5635 5636 5636 5637 5638 5639 5639 5640 5641 5642 5643 5643 5644 5645 5646 5648 5649
5625 5625 5625 5624 5624 5624 5624 5623 5623 5623 5623 5623 5623 5623 5623 5624 5624 5624 5624 5624 5624 5624 5624 5625 5625 5625 5625 5625 5625 5626 5626 5626 5626 5626 5626 5626 5626 5626 5626 5626 5626 5627 5627 5628 5628 5628 5628 5629 5629 5630 5630 5631 5631 5632 5633 5634 5634 5635 5636 5637 5638 5638 5639 5639 5640 5640 5641 5642 5643
5622 5622 5622 5621 5621 5621 5621 5621 5620 5620 5620 5620 5620 5620 5620 5620 5620 5621 5621 5621 5621 5621 5621 5622 5622 5622 5622 5622 5623 5623 5623 5623 5623 5623 5623 5623 5623 5623 5623 5623 5623 5623 5623 5624 5624 5624 5625 5625 5625 5626 5626 5627 5628 5628 5629 5630 5631 5632 5633 5633 5634 5635 5636 5636 5636 5636 5637 5637 5638
5619 5618 5618 5618 5618 5618 5618 5618 5618 5617 5617 5617 5617 5617 5617 5617 5617 5617 5617 5617 5618 5618 5618 5618 5618 5618 5618 5619 5619 5619 5620 5620 5620 5620 5621 5621 5621 5620 5620 5620 5620 5620 5620 5620 5620 5621 5621 5621 5621 5622 5622 5623 5623 5624 5625 5626 5627 5628 5628 5629 5630 5631 5632 5633 5633 5633 5633 5633 5633
5616 5616 5615 5615 5615 5615 5614 5614 5614 5614 5614 5614 5614 5614 5613 5613 5613 5613 5613 5613 5614 5614 5614 5614 5614 5615 5615 5615 5615 5616 5616 5616 5617 5617 5617 5618 5618 5618 5618 5617 5617 5617 5617 5617 5617 5617 5617 5617 5618 5618 5618 5618 5619 5620 5620 5621 5622 5623 5624 5625 5626 5627 5628 5629 5629 5630 5630 5630 5630
5613 5613 5612 5612 5612 5612 5611 5611 5611 5611 5611 5611 5611 5611 5611 5610 5610 5610 5610 5610 5610 5610 5610 5611 5611 5611 5611 5611 5611 5612 5612 5612 5613 5613 5613 5613 5614 5614 5614 5614 5614 5614 5614 5614 5614 5614 5614 5614 5614 5614 5614 5615 5615 5615 5616 5617 5618 5618 5619 5620 5622 5623 5623 5624 5625 5626 5626 5627 5627
5609 5609 5609 5609 5608 5608 5608 5608 5608 5608 5608 5608 5608 5608 5607 5607 5607 5607 5607 5607 5607 5607 5607 5607 5607 5607 5607 5607 5608 5608 5608 5608 5608 5609 5609 5609 5610 5610 5610 5611 5611 5611 5611 5611 5610 5610 5610 5610 5610 5610 5611 5611 5611 5611 5612 5612 5613 5613 5614 5615 5617 5618 5619 5619 5620 5621 5622 5623 5623
5606 5606 5606 5605 5605 5605 5605 5605 5604 5604 5604 5604 5604 5604 5604 5604 5603 5603 5603 5603 5603 5603 5603 5603 5603 5603 5603 5603 5603 5603 5604 5604 5604 5604 5605 5605 5605 5606 5606 5606 5607 5607 5607 5607 5607 5607 5607 5607 5607 5607 5607 5607 5607 5608 5608 5608 5608 5609 5610 5611 5612 5613 5614 5615 5616 5617 5617 5618 5619
5602 5602 5602 5602 5602 5602 5601 5601 5601 5601 5601 5601 5600 5600 5600 5600 5600 5600 5600 5599 5599 5599 5599 5599 5599 5599 5599 5599 5599 5600 5600 5600 5600 5600 5600 5600 5601 5601 5601 5602 5602 5603 5603 5603 5603 5603 5603 5603 5603 5603 5603 5603 5603 5603 5603 5604 5604 5605 5605 5606 5607 5608 5608 5609 5610 5611 5613 5613 5614
5598 5598 5598 5598 5598 5598 5598 5598 5598 5597 5597 5597 5597 5597 5596 5596 5596 5596 5596 5595 5595 5595 5595 5595 5595 5595 5595 5595 5595 5595 5595 5595 5595 5595 5595 5596 5596 5596 5596 5597 5597 5598 5598 5598 5598 5599 5599 5599 5599 5599 5599 5599 5599 5599 5599 5599 5600 5600 5600 5601 5602 5602 5603 5604 5605 5606 5607 5608 5608
5594 5594 5594 5594 5594 5594 5594 5594 5593 5593 5593 5593 5593 5593 5593 5592 5592 5592 5592 5591 5591 5591 5591 5590 5590 5590 5590 5590 5590 5590 5590 5590 5590 5591 5591 5591 5591 5591 5591 5591 5592 5592 5593 5593 5593 5594 5594 5594 5595 5595 5595 5595 5595 5595 5595 5595 5595 5595 5596 5596 5597 5597 5598 5598 5599 5600 5601 5602 5603
5590 5590 5590 5590 5590 5590 5590 5589 5589 5589 5589 5589 5589 5588 5588 5588 5588 5588 5587 5587 5587 5586 5586 5586 5586 5586 5585 5585 5585 5585 5585 5585 5585 5585 5585 5585 5585 5585 5585 5585 5586 5586 5586 5587 5588 5588 5589 5589 5590 5590 5590 5590 5590 5590 5590 5590 5590 5590 5591 5591 5592 5592 5593 5593 5594 5595 5595 5596 5598
5586 5585 5585 5585 5585 5585 5585 5585 5585 5585 5585 5584 5584 5584 5584 5584 5583 5583 5583 5583 5583 5582 5582 5581 5581 5581 5581 5580 5580 5580 5580 5580 5580 5580 5580 5580 5580 5580 5580 5580 5580 5580 5580 5580 5581 5582 5582 5583 5584 5584 5585 5585 5586 5586 5586 5586 5586 5586 5586 5586 5587 5587 5588 5588 5588 5589 5590 5591 5592
5581 5581 5581 5580 5580 5580 5580 5580 5580 5580 5580 5580 5580 5579 5579 5579 5579 5579 5579 5578 5578 5578 5577 5577 5577 5577 5576 5576 5576 5576 5575 5575 5575 5575 5575 5575 5575 5575 5574 5574 5574 5574 5574 5574 5574 5574 5575 5576 5577 5578 5578 5579 5580 5580 5581 5581 5581 5581 5581 5581 5581 5582 5582 5583 5583 5584 5584 5585 5586
5576 5576 5576 5575 5575 5575 5575 5575 5575 5575 5574 5574 5574 5574 5574 5574 5574 5574 5574 5573 5573 5573 5573 5572 5572 5572 5571 5571 5571 5571 5571 5570 5570 5570 5570 5569 5569 5569 5569 5569 5569 5568 5568 5568 5568 5568 5568 5569 5569 5570 5571 5572 5573 5574 5575 5575 5576 5576 5576 5576 5576 5576 5577 5577 5577 5578 5578 5579 5580
5571 5571 5570 5570 5570 5570 5570 5569 5569 5569 5569 5568 5568 5568 5568 5568 5568 5568 5568 5568 5568 5568 5567 5567 5567 5566 5566 5566 5566 5565 5565 5565 5565 5565 5564 5564 5564 5564 5563 5563 5563 5563 5563 5562 5562 5562 5562 5562 5562 5563 5564 5565 5566 5567 5568 5569 5570 5570 5570 5571 5571 5571 5571 5571 5572 5572 5573 5573 5574
5566 5566 5565 5565 5565 5564 5564 5564 5564 5563 5563 5563 5563 5562 5562 5562 5562 5562 5562 5562 5562 5561 5561 5561 5561 5560 5560 5560 5560 5559 5559 5559 5559 5558 5558 5558 5558 5558 5557 5557 5557 5557 5556 5556 5556 5556 5556 5556 5556 5556 5556 5557 5558 5559 5560 5562 5563 5563 5564 5565 5565 5566 5566 5566 5566 5566 5567 5567 5568
5561 5561 5560 5560 5559 5559 5559 5558 5558 5558 5558 5557 5557 5556 5556 5556 5555 5555 5555 5555 5555 5555 5555 5555 5554 5554 5554 5553 5553 5553 5553 5553 5553 5552 5552 5552 5552 5551 5551 5551 5551 5550 5550 5549 5549 5549 5549 5549 5549 5549 5549 5550 5550 5551 5552 5553 5554 5556 5557 5558 5559 5559 5560 5560 5560 5561 5561 5561 5562
5557 5556 5555 5555 5554 5554 5553 5553 5553 5552 5552 5552 5551 5551 5550 5550 5549 5549 5548 5548 5548 5548 5548 5548 5548 5548 5547 5547 5547 5547 5547 5546 5546 5546 5546 5545 5545 5545 5544 5544 5544 5543 5543 5543 5543 5542 5542 5542 5542 5543 5543 5543 5543 5543 5544 5545 5546 5547 5549 5550 5552 5553 5553 5554 5554 5555 5555 5555 5556
5552 5551 5550 5550 5549 5549 5548 5548 5548 5547 5546 5546 5545 5545 5544 5543 5543 5543 5542 5542 5542 5541 5541 5541 5540 5540 5540 5540 5539 5539 5539 5539 5539 5539 5539 5539 5538 5538 5538 5537 5537 5536 5536 5536 5536 5535 5535 5535 5535 5535 5535 5536 5536 5536 5537 5537 5538 5538 5540 5541 5543 5545 5546 5547 5548 5548 5549 5549 5550
5547 5546 5545 5545 5544 5543 5543 5543 5542 5541 5541 5540 5539 5539 5538 5538 5537 5537 5536 5536 5535 5535 5534 5534 5533 5533 5533 5533 5532 5532 5532 5532 5532 5532 5532 5532 5531 5531 5531 5530 5530 5529 5529 5528 5528 5528 5528 5527 5527 5527 5528 5528 5529 5529 5530 5530 5530 5531 5531 5533 5534 5536 5537 5539 5540 5541 5542 5543 5543
5542 5541 5540 5539 5539 5538 5538 5537 5537 5536 5535 5534 5534 5533 5532 5532 5531 5531 5530 5529 5529 5528 5528 5528 5527 5527 5526 5526 5525 5525 5524 5524 5524 5523 5523 5523 5523 5523 5523 5523 5522 5522 5521 5521 5521 5520 5520 5520 5519 5519 5519 5520 5521 5522 5523 5523 5523 5523 5524 5524 5525 5526 5528 5530 5531 5533 5534 5535 5536
5537 5536 5535 5534 5533 5533 5532 5532 5531 5530 5529 5529 5528 5527 5526 5526 5525 5524 5524 5523 5523 5522 5522 5521 5520 5520 5519 5519 5518 5518 5517 5517 5516 5516 5516 5516 5516 5515 5515 5515 5514 5514 5513 5513 5513 5512 5512 5512 5512 5511 5511 5511 5512 5513 5514 5515 5516 5516 5517 5517 5518 5518 5519 5520 5522 5523 5525 5527 5528
5531 5530 5530 5529 5528 5527 5526 5526 5525 5524 5523 5523 5522 5521 5520 5519 5519 5518 5518 5517 5517 5516 5515 5515 5514 5513 5513 5512 5511 5511 5510 5510 5509 5508 5508 5508 5508 5508 5507 5507 5506 5506 5505 5505 5504 5504 5504 5504 5503 5503 5503 5503 5503 5504 5506 5507 5508 5508 5509 5510 5510 5510 5511 5512 5513 5514 5516 5518 5519
5526 5525 5524 5523 5522 5522 5521 5520 5519 5518 5518 5517 5516 5515 5514 5513 5513 5512 5511 5511 5510 5509 5509 5508 5508 5507 5506 5505 5504 5504 5503 5503 5502 5501 5501 5500 5500 5499 5499 5498 5498 5497 5497 5496 5496 5495 5495 5495 5495 5495 5494 5494 5494 5495 5497 5498 5499 5500 5501 5502 5502 5503 5503 5504 5504 5505 5507 5508 5509
5520 5519 5518 5518 5517 5516 5515 5514 5513 5513 5512 5511 5510 5509 5508 5508 5507 5506 5505 5504 5503 5503 5502 5502 5501 5500 5499 5498 5498 5497 5496 5495 5494 5493 5493 5492 5492 5491 5491 5490 5490 5489 5488 5487 5487 5487 5486 5486 5486 5486 5485 5485 5485 5486 5487 5489 5490 5491 5493 5493 5494 5494 5495 5495 5496 5497 5498 5499 5500
5514 5514 5513 5512 5511 5510 5509 5508 5507 5507 5506 5505 5504 5503 5502 5501 5500 5499 5498 5498 5497 5496 5496 5495 5494 5493 5493 5492 5491 5490 5489 5488 5487 5486 5485 5484 5483 5483 5482 5482 5481 5480 5479 5478 5478 5477 5477 5477 5477 5477 5476 5476 5476 5477 5478 5479 5480 5482 5483 5484 5486 5486 5487 5487 5488 5488 5489 5490 5491
5509 5508 5507 5506 5505 5504 5503 5502 5501 5501 5500 5499 5498 5497 5496 5495 5494 5493 5492 5491 5490 5489 5489 5488 5488 5487 5486 5485 5484 5483 5482 5481 5480 5479 5477 5476 5475 5474 5474 5473 5473 5472 5470 5469 5469 5468 5468 5468 5467 5467 5467 5467 5467 5468 5468 5469 5470 5472 5473 5475 5477 5478 5478 5478 5479 5480 5481 5481 5482
5503 5503 5502 5500 5499 5498 5497 5496 5495 5494 5494 5493 5492 5491 5490 5489 5488 5487 5485 5484 5483 5483 5482 5481 5480 5479 5478 5477 5477 5476 5475 5474 5473 5471 5470 5468 5467 5466 5465 5465 5464 5463 5462 5461 5460 5459 5458 5458 5458 5458 5457 5457 5457 5458 5459 5460 5461 5462 5463 5465 5467 5468 5469 5470 5470 5471 5472 5473 5473
5498 5497 5496 5494 5493 5492 5491 5490 5489 5488 5488 5487 5485 5484 5483 5482 5481 5480 5478 5477 5476 5476 5475 5473 5472 5471 5470 5469 5468 5468 5467 5466 5464 5463 5462 5460 5458 5457 5457 5456 5455 5455 5454 5453 5451 5450 5449 5449 5448 5448 5447 5447 5448 5448 5449 5450 5451 5453 5453 5455 5456 5458 5459 5460 5461 5462 5463 5463 5464
5492 5491 5490 5489 5488 5486 5485 5484 5483 5482 5481 5480 5479 5478 5477 5476 5474 5473 5471 5470 5469 5468 5467 5466 5464 5463 5463 5461 5460 5459 5458 5457 5455 5454 5453 5451 5449 5448 5448 5447 5447 5446 5445 5444 5442 5441 5440 5439 5439 5438 5438 5437 5438 5439 5440 5441 5442 5443 5444 5445 5447 5448 5449 5450 5451 5452 5453 5454 5456
5486 5485 5484 5483 5482 5480 5479 5478 5477 5476 5474 5473 5472 5471 5470 5469 5467 5466 5464 5463 5462 5461 5459 5458 5457 5456 5454 5452 5451 5450 5449 5448 5446 5444 5443 5441 5440 5438 5438 5437 5437 5437 5437 5435 5433 5432 5431 5430 5429 5429 5428 5428 5428 5429 5430 5431 5432 5433 5434 5436 5437 5438 5438 5439 5441 5442 5444 5445 5447
5479 5478 5478 5477 5475 5474 5473 5472 5471 5469 5468 5467 5465 5464 5463 5462 5460 5458 5457 5455 5454 5453 5451 5450 5449 5448 5446 5443 5442 5441 5440 5438 5437 5435 5433 5431 5430 5428 5428 5427 5427 5427 5427 5426 5424 5423 5422 5421 5420 5419 5418 5418 5418 5419 5420 5421 5422 5423 5425 5426 5427 5428 5429 5429 5430 5432 5433 5436 5437
5473 5472 5471 5470 5469 5468 5467 5466 5464 5463 5461 5460 5459 5457 5456 5454 5453 5451 5449 5448 5446 5445 5443 5442 5441 5439 5437 5435 5434 5433 5431 5429 5428 5426 5424 5422 5420 5418 5418 5417 5417 5417 5416 5416 5414 5413 5412 5411 5411 5410 5409 5408 5408 5409 5410 5411 5413 5414 5415 5416 5417 5418 5419 5420 5421 5422 5423 5426 5428
5467 5466 5464 5463 5462 5461 5460 5459 5458 5456 5455 5453 5452 5450 5448 5447 5446 5444 5442 5440 5438 5437 5435 5433 5432 5431 5429 5427 5425 5424 5422 5421 5419 5417 5415 5413 5411 5409 5408 5408 5407 5407 5406 5406 5405 5403 5402 5401 5401 5400 5399 5398 5398 5399 5400 5401 5403 5404 5405 5406 5407 5408 5409 5410 5411 5412 5414 5416 5418
5461 5459 5458 5457 5456 5455 5454 5453 5451 5449 5448 5447 5445 5443 5441 5439 5438 5436 5434 5432 5430 5428 5427 5425 5424 5422 5420 5418 5417 5415 5413 5412 5410 5408 5406 5404 5402 5400 5399 5398 5397 5397 5396 5396 5395 5394 5393 5392 5392 5391 5390 5389 5388 5389 5390 5391 5393 5394 5395 5396 5397 5398 5399 5400 5402 5403 5405 5407 5408